Starlink 33572

operational
NORAD ID: 62767 Int'l Des: 2025-015 Owner: SPXS Country: US Constellation: starlink
LEOCIRCULAR

关于 Starlink 33572

正在加载描述...

实时位置

正在加载3D地球...

即将过境

高度历史

Altitude vs Time

uPlot chart will show altitude changes over time

两行轨道根数

1 62767U 25015K 26036.17950972 .00046968 00000-0 15885-2 0 9990
2 62767 53.1575 113.4643 0001131 80.9575 279.1554 15.30188218 59440
Epoch: Feb 5, 2026 • Age: 12 hours

当前状态

高度 493.6 km
速度 7.62 km/s
星下点 -51.25°S, 22.47°W
发射日期 Jan 21, 2025
运行时间 1 years
类型 internet

技术详情

分类 Payload
质量 575.00 kg
干质量 530.00 kg
总质量 575.00 kg
长度 0.30 m
直径 4.10 m
跨度 29.00 m
形状 Box + pan
制造商 SPXS
平台类型 Starlink V2MO
阶段状态 In Orbit
所有者/国家 SPXS/US

大型星座

Loading constellations...